This demonstration page uses our WeatherBlox Daily Observations layout. Learn more.

Left ArrowRight Arrow

Hourly Observations for April 12, 2021

Temp ( °F °C ) Dew Point ( °F °C ) Humidity (%) Winds ( mph kmh ) Pressure ( in mb ) Visibility ( mi km ) Precip ( " mm )
12:54 am 00:54 Clear 48 8.9 31 -0.6 52 52 NNW 17 28 29.9 1013 10 16.0934 0 0
1:54 am 01:54 Clear 46 7.8 30 -1.1 54 54 NW 23 37 29.93 1014 10 16.0934 0 0
2:54 am 02:54 Clear 44 6.7 31 -0.6 60 60 NW 15 24 29.95 1014 10 16.0934 0 0
3:54 am 03:54 Partly Cloudy 44 6.7 32 0 63 63 NNW 15 24 29.93 1014 10 16.0934 0 0
4:54 am 04:54 Mostly Cloudy 44 6.7 32 0 63 63 NNW 16 26 29.94 1014 10 16.0934 0 0
5:54 am 05:54 Mostly Cloudy 44 6.7 31 -0.6 60 60 NW 15 24 29.98 1015 10 16.0934 0 0
6:54 am 06:54 Cloudy 43 6.1 29 -1.7 58 58 NW 17 28 30.01 1016 10 16.0934 0 0
7:54 am 07:54 Mostly Sunny 41 5 28 -2.2 60 60 NW 13 20 30.04 1017 10 16.0934 0 0
8:54 am 08:54 Sunny 44 6.7 27 -2.8 51 51 NW 16 26 30.06 1018 10 16.0934 0 0
9:54 am 09:54 Sunny 47 8.3 26 -3.3 44 44 NNW 21 33 30.06 1018 10 16.0934 0 0
10:54 am 10:54 Sunny 50 10 26 -3.3 39 39 NNW 16 26 30.07 1018 10 16.0934 0 0
11:54 am 11:54 Sunny 52 11.1 24 -4.4 34 34 NNW 18 30 30.07 1018 10 16.0934 0 0
12:54 pm 12:54 Sunny 55 12.8 24 -4.4 30 30 NNW 16 26 30.06 1018 10 16.0934 0 0
1:54 pm 13:54 Sunny 57 13.9 23 -5 27 27 NW 20 31 30.04 1017 10 16.0934 0 0
2:54 pm 14:54 Sunny 58 14.4 22 -5.6 25 25 W 17 28 30.03 1017 10 16.0934 0 0
3:54 pm 15:54 Sunny 59 15 23 -5 25 25 NNW 14 22 30.03 1017 10 16.0934 0 0
4:54 pm 16:54 Sunny 60 15.6 20 -6.7 21 21 WNW 18 30 30.02 1017 10 16.0934 0 0
5:54 pm 17:54 Sunny 60 15.6 18 -7.8 19 19 WNW 15 24 30.02 1017 10 16.0934 0 0
6:54 pm 18:54 Sunny 59 15 18 -7.8 20 20 WNW 16 26 30.04 1017 10 16.0934 0 0
7:54 pm 19:54 Sunny 56 13.3 21 -6.1 26 26 NNW 10 17 30.07 1018 10 16.0934 0 0
8:54 pm 20:54 Clear 51 10.6 23 -5 33 33 NNW 12 19 30.1 1019 10 16.0934 0 0
9:54 pm 21:54 Clear 49 9.4 23 -5 36 36 N 12 19 30.13 1020 10 16.0934 0 0
10:54 pm 22:54 Clear 46 7.8 24 -4.4 42 42 NNW 13 20 30.15 1021 10 16.0934 0 0
11:54 pm 23:54 Clear 45 7.2 23 -5 42 42 NNW 10 17 30.18 1022 10 16.0934 0 0

Powered by AerisWeather